When you browse on this site, cookies collect data to enhance your experience and personalize the content and advertising you see.
Visit our Privacy Policy to learn more. By continuing to use the site, you agree to this use of cookies and data.
  • In Hungary
  • List of Countries
  • For 7 days
  • Water Temperature
  • Satellite Maps
  • Weather Map
  • News
  • Weather Widgets
  • user-avatar
    Login

    Hourly Weather Kerns

    Today, 23 January, Wednesday

    Time Temperature Precipitation Wind Pressure Humidity
    00:00 +26°C° 0 mm 3 mps 757 mmHg 93%
    01:00 +26°C° 0 mm 3 mps 757 mmHg 93%
    02:00 +26°C° 0 mm 3 mps 756 mmHg 93%
    03:00 +26°C° 0 mm 3 mps 756 mmHg 94%
    04:00 +26°C° 0 mm 3 mps 756 mmHg 94%
    05:00 +26°C° 0.1 mm 3 mps 756 mmHg 93%
    06:00 +27°C° 0.1 mm 3 mps 756 mmHg 91%
    07:00 +27°C° 0.1 mm 3 mps 756 mmHg 90%
    08:00 +29°C° 0.2 mm 3 mps 756 mmHg 85%
    09:00 +30°C° 0.2 mm 4 mps 757 mmHg 79%
    10:00 +32°C° 0 mm 4 mps 757 mmHg 77%
    11:00 +32°C° 0.3 mm 4 mps 757 mmHg 75%
    12:00 +33°C° 0.3 mm 4 mps 756 mmHg 74%
    13:00 +33°C° 0.3 mm 4 mps 756 mmHg 73%
    14:00 +33°C° 0.2 mm 4 mps 755 mmHg 74%
    15:00 +33°C° 0.2 mm 4 mps 755 mmHg 75%
    16:00 +32°C° 0.2 mm 4 mps 755 mmHg 76%
    17:00 +30°C° 0.3 mm 4 mps 755 mmHg 81%
    18:00 +29°C° 0.3 mm 3 mps 755 mmHg 86%
    19:00 +28°C° 0.3 mm 3 mps 755 mmHg 91%
    20:00 +28°C° 0.4 mm 3 mps 756 mmHg 93%
    21:00 +27°C° 0.4 mm 3 mps 756 mmHg 94%
    22:00 +27°C° 0.4 mm 3 mps 757 mmHg 95%
    23:00 +27°C° 0.7 mm 2 mps 757 mmHg 95%

    Tomorrow, 24 January, Thursday

    Time Temperature Precipitation Wind Pressure Humidity
    00:00 +27°C° 0.7 mm 2 mps 756 mmHg 96%
    01:00 +27°C° 0.7 mm 2 mps 756 mmHg 96%
    02:00 +27°C° 0.6 mm 2 mps 756 mmHg 96%
    03:00 +26°C° 0.6 mm 2 mps 755 mmHg 96%
    04:00 +26°C° 0.6 mm 3 mps 755 mmHg 96%
    05:00 +27°C° 0.2 mm 3 mps 755 mmHg 95%
    06:00 +27°C° 0.2 mm 3 mps 756 mmHg 94%
    07:00 +27°C° 0.2 mm 3 mps 756 mmHg 93%
    08:00 +28°C° 0.2 mm 3 mps 756 mmHg 88%
    09:00 +30°C° 0.2 mm 3 mps 756 mmHg 83%
    10:00 +32°C° 0.2 mm 4 mps 756 mmHg 78%
    11:00 +33°C° 0.1 mm 4 mps 756 mmHg 74%
    12:00 +33°C° 0.1 mm 4 mps 756 mmHg 70%
    13:00 +34°C° 0.1 mm 4 mps 755 mmHg 67%
    14:00 +33°C° 0.1 mm 4 mps 755 mmHg 71%
    15:00 +33°C° 0.1 mm 4 mps 755 mmHg 75%
    16:00 +31°C° 0.1 mm 3 mps 754 mmHg 79%
    17:00 +30°C° 0.1 mm 3 mps 755 mmHg 84%
    18:00 +29°C° 0.1 mm 3 mps 755 mmHg 88%
    19:00 +28°C° 0.1 mm 3 mps 756 mmHg 92%
    20:00 +28°C° 0.1 mm 3 mps 756 mmHg 93%
    21:00 +28°C° 0.1 mm 3 mps 756 mmHg 94%
    22:00 +28°C° 0.1 mm 3 mps 757 mmHg 95%
    23:00 +28°C° 0.1 mm 3 mps 756 mmHg 95%

    Day after tomorrow, 25 January, Friday

    Time Temperature Precipitation Wind Pressure Humidity
    00:00 +28°C° 0.1 mm 3 mps 756 mmHg 96%
    01:00 +28°C° 0.1 mm 3 mps 756 mmHg 96%
    02:00 +27°C° 0.2 mm 3 mps 756 mmHg 96%
    03:00 +27°C° 0.2 mm 3 mps 755 mmHg 96%
    04:00 +27°C° 0.2 mm 3 mps 755 mmHg 96%
    05:00 +27°C° 0.2 mm 3 mps 755 mmHg 96%
    06:00 +27°C° 0.2 mm 3 mps 755 mmHg 96%
    07:00 +27°C° 0.2 mm 3 mps 756 mmHg 95%
    08:00 +28°C° 0.3 mm 3 mps 756 mmHg 92%
    09:00 +29°C° 0.3 mm 4 mps 756 mmHg 88%
    10:00 +29°C° 0.3 mm 4 mps 756 mmHg 84%
    11:00 +29°C° 0.9 mm 4 mps 756 mmHg 87%
    12:00 +28°C° 0.9 mm 4 mps 755 mmHg 89%
    13:00 +28°C° 0.9 mm 5 mps 755 mmHg 91%
    14:00 +27°C° 3.1 mm 4 mps 754 mmHg 93%
    15:00 +27°C° 3.1 mm 4 mps 754 mmHg 94%
    16:00 +26°C° 3.1 mm 4 mps 754 mmHg 95%
    17:00 +26°C° 1.7 mm 5 mps 754 mmHg 95%
    18:00 +26°C° 1.7 mm 5 mps 754 mmHg 95%
    19:00 +26°C° 1.7 mm 5 mps 755 mmHg 95%
    20:00 +26°C° 2 mm 6 mps 755 mmHg 95%
    21:00 +26°C° 2 mm 6 mps 755 mmHg 95%
    22:00 +26°C° 2 mm 6 mps 755 mmHg 95%
    23:00 +26°C° 6.1 mm 7 mps 755 mmHg 95%

    26 January, Saturday

    Time Temperature Precipitation Wind Pressure Humidity
    00:00 +26°C° 6.1 mm 7 mps 754 mmHg 95%
    01:00 +26°C° 6.1 mm 7 mps 754 mmHg 95%
    02:00 +26°C° 1.9 mm 8 mps 753 mmHg 95%
    03:00 +26°C° 1.9 mm 8 mps 752 mmHg 95%
    04:00 +26°C° 1.9 mm 8 mps 752 mmHg 95%
    05:00 +26°C° 1.9 mm 8 mps 752 mmHg 95%
    06:00 +26°C° 1.9 mm 8 mps 752 mmHg 95%
    07:00 +26°C° 1.9 mm 9 mps 752 mmHg 95%
    08:00 +27°C° 2.8 mm 9 mps 752 mmHg 95%
    09:00 +27°C° 2.8 mm 9 mps 752 mmHg 96%
    10:00 +27°C° 2.8 mm 9 mps 752 mmHg 96%
    11:00 +27°C° 12.6 mm 9 mps 751 mmHg 97%
    12:00 +28°C° 12.6 mm 10 mps 750 mmHg 97%
    13:00 +28°C° 12.6 mm 10 mps 750 mmHg 97%
    14:00 +28°C° 12.8 mm 9 mps 749 mmHg 97%
    15:00 +28°C° 12.8 mm 9 mps 748 mmHg 97%
    16:00 +28°C° 12.8 mm 9 mps 748 mmHg 97%
    17:00 +28°C° 2.1 mm 8 mps 748 mmHg 97%
    18:00 +28°C° 2.1 mm 7 mps 749 mmHg 97%
    19:00 +28°C° 2.1 mm 5 mps 749 mmHg 96%
    20:00 +27°C° 0.2 mm 5 mps 750 mmHg 96%
    21:00 +27°C° 0.2 mm 5 mps 750 mmHg 96%
    22:00 +27°C° 0.2 mm 5 mps 751 mmHg 96%
    23:00 +26°C° 0 mm 4 mps 751 mmHg 96%

    27 January, Sunday

    Time Temperature Precipitation Wind Pressure Humidity
    00:00 +25°C° 0 mm 4 mps 750 mmHg 96%
    01:00 +25°C° 0 mm 3 mps 750 mmHg 96%
    02:00 +25°C° 0 mm 4 mps 750 mmHg 95%
    03:00 +23°C° 0 mm 4 mps 750 mmHg 94%
    04:00 +23°C° 0 mm 4 mps 750 mmHg 94%
    05:00 +23°C° 0 mm 4 mps 751 mmHg 93%
    06:00 +25°C° 0 mm 4 mps 751 mmHg 92%
    07:00 +25°C° 0 mm 4 mps 752 mmHg 91%
    08:00 +26°C° 0 mm 4 mps 752 mmHg 85%
    09:00 +28°C° 0 mm 4 mps 753 mmHg 78%
    10:00 +29°C° 0 mm 5 mps 753 mmHg 71%
    11:00 +30°C° 0 mm 5 mps 753 mmHg 69%
    12:00 +32°C° 0 mm 5 mps 752 mmHg 67%
    13:00 +32°C° 0 mm 5 mps 752 mmHg 66%
    14:00 +32°C° 0.1 mm 4 mps 751 mmHg 67%
    15:00 +32°C° 0.1 mm 4 mps 751 mmHg 69%
    16:00 +33°C° 0.1 mm 4 mps 751 mmHg 71%
    17:00 +30°C° 0.7 mm 4 mps 751 mmHg 79%
    18:00 +29°C° 0.7 mm 4 mps 752 mmHg 86%
    19:00 +28°C° 0.7 mm 4 mps 752 mmHg 94%
    20:00 +27°C° 0.9 mm 3 mps 753 mmHg 94%
    21:00 +27°C° 0.9 mm 3 mps 753 mmHg 95%
    22:00 +27°C° 0.9 mm 3 mps 754 mmHg 95%
    23:00 +27°C° 0.3 mm 2 mps 754 mmHg 95%

    28 January, Monday

    Time Temperature Precipitation Wind Pressure Humidity
    00:00 +27°C° 0.3 mm 2 mps 753 mmHg 96%
    01:00 +26°C° 0.3 mm 2 mps 753 mmHg 96%
    02:00 +26°C° 0.1 mm 2 mps 753 mmHg 96%
    03:00 +26°C° 0.1 mm 2 mps 753 mmHg 97%
    04:00 +26°C° 0.1 mm 2 mps 752 mmHg 97%
    05:00 +27°C° 0 mm 2 mps 753 mmHg 96%
    06:00 +27°C° 0 mm 2 mps 753 mmHg 96%
    07:00 +28°C° 0 mm 2 mps 754 mmHg 96%
    08:00 +29°C° 0.1 mm 2 mps 754 mmHg 90%
    09:00 +30°C° 0.1 mm 2 mps 754 mmHg 85%
    10:00 +31°C° 0.1 mm 3 mps 755 mmHg 80%
    11:00 +33°C° 0.1 mm 3 mps 754 mmHg 75%
    12:00 +34°C° 0.1 mm 3 mps 754 mmHg 70%
    13:00 +35°C° 0.1 mm 4 mps 754 mmHg 66%
    14:00 +34°C° 0.3 mm 4 mps 753 mmHg 70%
    15:00 +34°C° 0.3 mm 4 mps 753 mmHg 74%
    16:00 +33°C° 0.3 mm 4 mps 753 mmHg 78%
    17:00 +32°C° 0.4 mm 4 mps 753 mmHg 83%
    18:00 +30°C° 0.4 mm 3 mps 754 mmHg 89%
    19:00 +29°C° 0.4 mm 3 mps 754 mmHg 95%
    20:00 +28°C° 0.5 mm 3 mps 755 mmHg 95%
    21:00 +28°C° 0.5 mm 3 mps 755 mmHg 96%
    22:00 +28°C° 0.5 mm 3 mps 756 mmHg 97%
    23:00 +28°C° 0.6 mm 3 mps 755 mmHg 97%
    Show more